KB9QJM Weather Reports


Display with metric or nautical units.
time (UTC)temp
F
wind
direction
speed
MPH
gust
MPH
rain 1hr
in
rain 24hr
in
rain mn
in
humidity
%
barometer
mb
20260504023053 60 183 10.0 17.0 0.00 0.00 0.00 57 1012.2
20260504021554 61 173 13.0 18.0 0.00 0.00 0.00 55 1011.9
20260504020047 61 169 12.0 18.0 0.00 0.00 0.00 55 1011.7
20260504014551 61 174 11.0 16.0 0.00 0.00 0.00 55 1011.8
20260504013054 61 168 11.0 18.0 0.00 0.00 0.00 55 1011.9
20260504011549 62 173 11.0 17.0 0.00 0.00 0.00 54 1011.9
20260504010049 62 172 11.0 18.0 0.00 0.00 0.00 52 1012.0
20260504004548 63 180 11.0 16.0 0.00 0.00 0.00 52 1012.1
20260504003051 63 154 11.0 18.0 0.00 0.00 0.00 50 1012.3
20260504001546 63 167 10.0 19.0 0.00 0.00 0.00 49 1012.8
20260504000111 63 178 12.0 20.0 0.00 0.00 0.00 49 1012.8
20260503234556 64 184 7.0 16.0 0.00 0.00 0.00 50 1013.1
20260503233045 64 224 12.0 23.0 0.00 0.00 0.00 48 1012.9
20260503231546 64 190 11.0 22.0 0.00 0.00 0.00 49 1012.8
20260503230050 64 206 12.0 32.0 0.00 0.00 0.00 49 1013.0
20260503224546 64 197 14.0 26.0 0.00 0.00 0.00 50 1012.8
20260503223049 64 181 17.0 33.0 0.00 0.00 0.00 50 1012.8
20260503221553 64 208 15.0 29.0 0.00 0.00 0.00 49 1012.7
20260503220049 65 196 18.0 27.0 0.00 0.00 0.00 48 1012.9
20260503214550 64 185 16.0 29.0 0.00 0.00 0.00 47 1012.9
20260503213051 64 180 17.0 31.0 0.00 0.00 0.00 49 1013.3
20260503211559 63 196 17.0 30.0 0.00 0.00 0.00 49 1013.6
20260503210050 63 190 18.0 28.0 0.00 0.00 0.00 48 1013.9
20260503204552 63 196 19.0 25.0 0.00 0.00 0.00 48 1014.1
20260503203105 63 192 13.0 23.0 0.00 0.00 0.00 48 1015.1
20260503201548 63 227 15.0 23.0 0.00 0.00 0.00 47 1015.8
20260503200043 63 213 16.0 29.0 0.00 0.00 0.00 47 1015.7
20260503194554 63 233 17.0 31.0 0.00 0.00 0.00 48 1015.9
20260503193050 63 250 17.0 30.0 0.00 0.00 0.00 47 1015.8
20260503191547 63 218 18.0 32.0 0.00 0.00 0.00 47 1016.1
20260503190049 62 159 16.0 30.0 0.00 0.00 0.00 46 1016.4
20260503184550 62 229 14.0 25.0 0.00 0.00 0.00 50 1016.7
20260503183049 62 173 16.0 28.0 0.00 0.00 0.00 47 1017.1
20260503181600 62 178 13.0 24.0 0.00 0.00 0.00 50 1017.4
20260503180049 61 187 17.0 26.0 0.00 0.00 0.00 48 1017.9
20260503174551 61 185 13.0 25.0 0.00 0.00 0.00 49 1018.2
20260503173056 61 213 13.0 23.0 0.00 0.00 0.00 50 1018.5
20260503171547 60 232 17.0 24.0 0.00 0.00 0.00 50 1018.7
20260503081550 37 144 3.0 4.0 0.00 0.00 0.00 91 1019.5
20260503071559 37 144 3.0 4.0 0.00 0.00 0.00 90 1019.4
20260503060106 38 144 1.0 4.0 0.00 0.00 0.00 88 1019.9
20260503054549 39 144 3.0 4.0 0.00 0.00 0.00 86 1019.9
20260503053047 39 144 4.0 5.0 0.00 0.00 0.00 85 1019.9
20260503051550 39 173 4.0 5.0 0.00 0.00 0.00 85 1020.0
20260503050047 40 170 2.0 3.0 0.00 0.00 0.00 85 1019.8
20260503044558 40 196 1.0 2.0 0.00 0.00 0.00 84 1020.0
20260503043055 41 196 1.0 3.0 0.00 0.00 0.00 86 1019.8
20260503041550 40 196 1.0 3.0 0.00 0.00 0.00 84 1019.8
20260503040049 41 196 1.0 3.0 0.00 0.00 0.00 81 1020.0
20260503034550 42 196 1.0 2.0 0.00 0.00 0.00 79 1020.0
20260503033056 42 196 1.0 2.0 0.00 0.00 0.00 79 1019.8
20260503031545 43 196 1.0 2.0 0.00 0.00 0.00 79 1019.9
20260503030051 43 196 1.0 2.0 0.00 0.00 0.00 77 1020.0
20260503024554 44 196 0.0 2.0 0.00 0.00 0.00 73 1019.9